[[{"header":{"parameterUnit":"m.s-1","parameterCategory":1,"la1":30.2992,"la2":30.254,"lo1":-89.0895,"lo2":-89.0443,"dy":0.0025,"dx":0.0025,"nx":19,"ny":19,"refTime":"2026-03-18T03:00:00:Z","depth":0,"parameterNumber":2,"parameterNumberName":"U-component_of_WINDS"},"data":[0,0,0,0.4138,0.4137,0.4082,0.4082,0.4014,0.4013,0,0,0,0,0,0,0,0,0,0,0,0.4157,0.4157,0.4138,0.4137,0.4082,0.4082,0.4014,0.4013,0,0,0,0,0,0,0,0,0,0,0,0.4157,0.4157,0.4157,0.4137,0.4082,0.4082,0.4014,0.4054,0,0,0,0,0,0,0,0,0,0,0.4107,0.4128,0.4157,0.4157,0.4136,0.4083,0.4082,0.4056,0.4052,0.404,0,0.4032,0,0.4022,0.4009,0.4009,0,0,0,0.4134,0.4131,0.4114,0.4157,0.4136,0.4083,0.4106,0.4054,0.4049,0.4034,0.4031,0.4028,0.4021,0.4009,0.4008,0.3956,0.3956,0,0,0.4137,0.4148,0.4118,0.4111,0.4122,0.4108,0.4105,0.4051,0.4047,0.4031,0.4027,0.402,0.4008,0.4008,0.3956,0.3956,0,0,0,0.4148,0.4151,0.4135,0.4114,0.4105,0.4106,0.4102,0.4049,0.4043,0.4026,0.4019,0.4008,0.4007,0.3956,0.3956,0.3963,0,0,0,0.4149,0.4157,0.4136,0.4143,0.4106,0.4077,0.4103,0.4047,0.4041,0.4019,0.4008,0.4006,0.3956,0.3956,0.3963,0.3963,0,0,0,0.416,0.4158,0.4151,0.4143,0.4121,0.4077,0.4068,0.4046,0.4036,0.4009,0.4006,0.3956,0.3956,0.3963,0.3964,0.3953,0,0,0,0.4173,0.4157,0.4152,0.413,0.4121,0.4083,0.4068,0.4039,0.4016,0.4007,0.3956,0.3956,0.3963,0.3964,0.3954,0.3947,0.3945,0,0,0.4158,0.4155,0.4142,0.4136,0.4102,0.409,0.4056,0.4023,0.4008,0.3974,0.3972,0.3963,0.3964,0.3953,0.3934,0.3933,0,0,0,0.4141,0.4131,0.412,0.41,0.4076,0.4055,0.4026,0.4014,0.3984,0.3994,0.3956,0.3956,0.395,0.3946,0.3945,0.3938,0.3955,0.3955,0.3955,0.4135,0.412,0.4096,0.4075,0.4056,0.4027,0.401,0.3988,0.3976,0.3968,0.3957,0.3947,0.3943,0.3943,0.3936,0.3953,0.3953,0.3953,0.3953,0.4112,0.4096,0.4083,0.4056,0.404,0.4015,0.3987,0.398,0.3955,0.3954,0.3947,0.3947,0.3942,0.3935,0.3953,0.3953,0.3953,0.3953,0.3953,0.4106,0.4096,0.4083,0.4054,0.4032,0.401,0.3987,0.3972,0.3957,0.3951,0.3938,0.3938,0.3935,0.3946,0.3946,0.3946,0.3946,0.3946,0.3946,0.4105,0.409,0.4074,0.4048,0.4034,0.4013,0.3985,0.397,0.3949,0.394,0.394,0.3929,0.3945,0.3949,0.3945,0.3945,0.3945,0.3946,0.3946,0.4086,0.4088,0.4063,0.4049,0.4018,0.3997,0.398,0.395,0.3935,0.3924,0.3915,0.393,0.3924,0.3925,0.3928,0.3919,0.3919,0.3919,0.3919,0.4081,0.4078,0.4049,0.4027,0.4005,0.3987,0.3956,0.3935,0.3912,0.3901,0.39,0.3904,0.3905,0.3899,0.39,0.3903,0.3887,0.3887,0.3887,0.4068,0.4062,0.4041,0.4021,0.3996,0.3974,0.3945,0.392,0.3894,0.3886,0.3892,0.3894,0.3899,0.3902,0.3892,0.3894,0.3899,0,0]},{"header":{"parameterUnit":"m.s-1","parameterCategory":1,"la1":30.2992,"la2":30.254,"lo1":-89.0895,"lo2":-89.0443,"dy":0.0025,"dx":0.0025,"nx":19,"ny":19,"refTime":"2026-03-18T03:00:00:Z","depth":0,"parameterNumber":3,"parameterNumberName":"V-component_of_WINDS"},"data":[0,0,0,-0.563,-0.563,-0.5637,-0.5637,-0.565,-0.565,0,0,0,0,0,0,0,0,0,0,0,-0.5631,-0.5631,-0.563,-0.563,-0.5637,-0.5637,-0.565,-0.565,0,0,0,0,0,0,0,0,0,0,0,-0.5631,-0.5631,-0.5631,-0.563,-0.5637,-0.5637,-0.565,-0.5643,0,0,0,0,0,0,0,0,0,0,-0.5636,-0.5639,-0.5631,-0.5631,-0.563,-0.5637,-0.5637,-0.5643,-0.5644,-0.5649,0,-0.5654,0,-0.5652,-0.5651,-0.5651,0,0,0,-0.5628,-0.5638,-0.5638,-0.5631,-0.563,-0.5637,-0.5633,-0.5643,-0.5644,-0.565,-0.5654,-0.5655,-0.5653,-0.5652,-0.5652,-0.5688,-0.5688,0,0,-0.5628,-0.5633,-0.5637,-0.5639,-0.5638,-0.5633,-0.5634,-0.5644,-0.5649,-0.5654,-0.5655,-0.5653,-0.5652,-0.5652,-0.5687,-0.5688,0,0,0,-0.5628,-0.5633,-0.5632,-0.5638,-0.5639,-0.5634,-0.5634,-0.5649,-0.5648,-0.5655,-0.5653,-0.5652,-0.5652,-0.5687,-0.5687,-0.5705,0,0,0,-0.5628,-0.5633,-0.5632,-0.5636,-0.5639,-0.5644,-0.5639,-0.5647,-0.5648,-0.5653,-0.5652,-0.5652,-0.5687,-0.5687,-0.5704,-0.5713,0,0,0,-0.5629,-0.5633,-0.5635,-0.5636,-0.5639,-0.5644,-0.5644,-0.5647,-0.5647,-0.5651,-0.5652,-0.5687,-0.5687,-0.5703,-0.5711,-0.5723,0,0,0,-0.5632,-0.5652,-0.5636,-0.5657,-0.5639,-0.5655,-0.5643,-0.5655,-0.5661,-0.5652,-0.5687,-0.5687,-0.5703,-0.571,-0.5722,-0.5734,-0.5739,0,0,-0.566,-0.5656,-0.5667,-0.5653,-0.5673,-0.5654,-0.5676,-0.5677,-0.5672,-0.5683,-0.5683,-0.5705,-0.5711,-0.5723,-0.577,-0.5775,0,0,0,-0.5678,-0.5687,-0.5691,-0.5697,-0.5698,-0.5698,-0.5695,-0.5695,-0.5703,-0.5679,-0.5713,-0.5716,-0.5723,-0.5728,-0.5732,-0.5737,-0.569,-0.569,-0.569,-0.5725,-0.5718,-0.5737,-0.573,-0.5736,-0.5732,-0.5735,-0.5735,-0.5726,-0.5734,-0.5737,-0.5766,-0.5773,-0.5775,-0.5781,-0.5743,-0.5743,-0.5743,-0.5743,-0.5764,-0.5775,-0.5762,-0.5776,-0.5768,-0.5779,-0.5775,-0.5769,-0.5777,-0.5764,-0.5769,-0.5754,-0.5781,-0.5785,-0.5745,-0.5744,-0.5744,-0.5744,-0.5744,-0.5794,-0.5797,-0.5797,-0.5804,-0.581,-0.5803,-0.5812,-0.5805,-0.5798,-0.5803,-0.5805,-0.5804,-0.5802,-0.5805,-0.5805,-0.5805,-0.5805,-0.5805,-0.5805,-0.5824,-0.5823,-0.5831,-0.5833,-0.5835,-0.5837,-0.5833,-0.5835,-0.5835,-0.5829,-0.5829,-0.5819,-0.5785,-0.5776,-0.5807,-0.5806,-0.5806,-0.5806,-0.5806,-0.5864,-0.5854,-0.5867,-0.5869,-0.587,-0.5876,-0.5867,-0.5871,-0.5872,-0.5876,-0.5865,-0.5842,-0.5836,-0.5833,-0.5826,-0.5867,-0.5867,-0.5867,-0.5867,-0.5888,-0.5885,-0.5896,-0.59,-0.5903,-0.5896,-0.5909,-0.5906,-0.5901,-0.59,-0.5893,-0.5883,-0.588,-0.5877,-0.5873,-0.5865,-0.5916,-0.5916,-0.5916,-0.5912,-0.5909,-0.5922,-0.5917,-0.5917,-0.5917,-0.5929,-0.5934,-0.5926,-0.5918,-0.59,-0.5898,-0.5881,-0.5876,-0.5867,-0.5861,-0.5848,0,0]}]]